CW8095 Weather Reports


Display with metric or nautical units.
time (UTC)temp
F
wind
direction
speed
MPH
gust
MPH
rain 1hr
in
rain 24hr
in
rain mn
in
humidity
%
barometer
mb
20260507051026 60 59 4.0 8.0 0.00 0.11 0.00 77 1017.0
20260507050041 59 56 4.0 8.0 0.00 0.11 0.11 78 1017.0
20260507045023 59 55 5.0 8.0 0.00 0.11 0.11 78 1017.0
20260507044518 59 55 4.0 8.0 0.00 0.11 0.11 78 1017.1
20260507043540 59 63 5.0 8.0 0.00 0.11 0.11 78 1017.2
20260507042527 59 59 5.0 9.0 0.00 0.11 0.11 78 1017.3
20260507041530 59 59 4.0 8.0 0.00 0.11 0.11 78 1017.4
20260507040531 59 61 5.0 8.0 0.00 0.11 0.11 78 1017.3
20260507035526 59 69 6.0 13.0 0.00 0.11 0.11 79 1017.3
20260507034601 60 66 5.0 10.0 0.00 0.11 0.11 79 1017.4
20260507033516 60 62 5.0 11.0 0.00 0.11 0.11 79 1017.3
20260507032530 60 68 5.0 9.0 0.00 0.11 0.11 79 1017.2
20260507031609 60 80 2.0 4.0 0.00 0.11 0.11 80 1017.2
20260507030604 60 65 1.0 3.0 0.00 0.11 0.11 81 1017.1
20260507025518 60 39 2.0 6.0 0.00 0.11 0.11 81 1016.9
20260507024528 60 74 3.0 6.0 0.00 0.11 0.11 80 1016.8
20260507023524 60 78 3.0 7.0 0.00 0.11 0.11 79 1016.5
20260507022516 60 68 4.0 7.0 0.00 0.11 0.11 79 1016.3
20260507021607 61 65 4.0 7.0 0.00 0.11 0.11 79 1016.0
20260507020522 61 80 3.0 7.0 0.00 0.11 0.11 79 1015.9
20260507015518 61 65 4.0 9.0 0.00 0.11 0.11 79 1015.6
20260507014528 61 78 3.0 8.0 0.00 0.11 0.11 79 1015.4
20260507013523 61 23 3.0 7.0 0.00 0.11 0.11 78 1015.2
20260507012518 62 65 1.0 3.0 0.00 0.11 0.11 79 1014.9
20260507011548 62 81 3.0 4.0 0.00 0.11 0.11 79 1014.7
20260507010544 62 65 2.0 4.0 0.00 0.11 0.11 79 1014.6
20260507005539 62 78 2.0 3.0 0.00 0.11 0.11 78 1014.5
20260507004549 63 81 2.0 3.0 0.00 0.11 0.11 77 1014.6
20260507003524 63 71 2.0 4.0 0.00 0.11 0.11 77 1014.7
20260507002519 63 58 1.0 3.0 0.00 0.11 0.11 76 1014.5
20260507001530 64 61 2.0 3.0 0.07 0.11 0.11 76 1014.4
20260507000525 64 76 1.0 2.0 0.11 0.11 0.11 77 1014.4
20260506235520 64 75 1.0 3.0 0.11 0.11 0.11 75 1014.2
20260506234536 64 22 1.0 3.0 0.11 0.11 0.11 75 1014.3
20260506233526 64 296 1.0 4.0 0.11 0.11 0.11 75 1013.9
20260506232522 64 331 3.0 7.0 0.11 0.11 0.11 71 1013.8
20260506231517 66 67 3.0 9.0 0.04 0.04 0.04 64 1013.9
20260506230527 67 258 3.0 7.0 0.00 0.00 0.00 59 1014.0
20260506225522 67 68 3.0 7.0 0.00 0.00 0.00 59 1013.7
20260506224517 67 240 2.0 4.0 0.00 0.00 0.00 59 1013.9
20260506223548 68 8 2.0 7.0 0.00 0.00 0.00 58 1013.9
20260506222523 68 281 3.0 7.0 0.00 0.00 0.00 56 1013.6
20260506221518 68 81 2.0 8.0 0.00 0.00 0.00 57 1013.4
20260506220529 68 283 3.0 11.0 0.00 0.00 0.00 57 1013.8
20260506215544 68 50 2.0 6.0 0.00 0.00 0.00 57 1013.5
20260506214519 68 326 3.0 8.0 0.00 0.00 0.00 56 1013.7
20260506213530 69 261 3.0 9.0 0.00 0.00 0.00 55 1013.6
20260506212525 70 54 2.0 6.0 0.00 0.00 0.00 54 1013.5
20260506211520 69 28 3.0 8.0 0.00 0.00 0.00 54 1013.7
20260506210515 70 326 3.0 9.0 0.00 0.00 0.00 52 1013.6
20260506205606 70 339 3.0 9.0 0.00 0.00 0.00 53 1013.8
20260506204521 70 335 2.0 10.0 0.00 0.00 0.00 54 1013.8
20260506203516 70 260 3.0 10.0 0.00 0.00 0.00 54 1014.0
20260506202527 69 354 3.0 9.0 0.00 0.00 0.00 55 1014.4
20260506201522 67 10 3.0 7.0 0.00 0.00 0.00 58 1014.2
20260506200537 67 16 3.0 11.0 0.00 0.00 0.00 57 1014.6
20260506195608 67 323 3.0 7.0 0.00 0.00 0.00 59 1014.7
20260506194523 66 58 3.0 9.0 0.00 0.00 0.00 60 1014.6
20260506193518 65 28 3.0 6.0 0.00 0.00 0.00 61 1014.6
20260506192529 64 246 3.0 10.0 0.00 0.00 0.00 63 1014.6
20260506191525 63 252 3.0 9.0 0.00 0.00 0.00 65 1014.7
20260506190520 62 209 2.0 4.0 0.00 0.00 0.00 65 1015.1
20260506185530 63 259 5.0 9.0 0.00 0.00 0.00 64 1015.2
20260506184525 63 254 4.0 8.0 0.00 0.00 0.00 65 1015.0
20260506183541 62 231 1.0 6.0 0.00 0.00 0.00 66 1014.8
20260506182516 62 322 1.0 4.0 0.00 0.00 0.00 66 1015.0
20260506181526 62 49 3.0 9.0 0.00 0.00 0.00 65 1015.0
20260506180521 63 284 4.0 10.0 0.00 0.00 0.00 64 1014.4
20260506175537 63 13 5.0 14.0 0.00 0.00 0.00 65 1013.6
20260506174648 64 38 6.0 22.0 0.00 0.00 0.00 64 1013.2
20260506173522 63 360 3.0 11.0 0.00 0.00 0.00 66 1013.5
20260506172518 63 75 3.0 10.0 0.00 0.00 0.00 66 1014.1
20260506171528 62 21 5.0 9.0 0.00 0.00 0.00 67 1014.3
20260506170523 61 351 4.0 11.0 0.00 0.00 0.00 69 1014.5
20260506165518 60 27 3.0 8.0 0.00 0.00 0.00 70 1015.0
20260506164529 61 28 5.0 14.0 0.00 0.00 0.00 68 1014.8
20260506163544 62 49 6.0 14.0 0.00 0.00 0.00 66 1014.2
20260506162519 65 23 5.0 14.0 0.00 0.00 0.00 62 1014.3
20260506161549 66 61 5.0 10.0 0.00 0.00 0.00 61 1014.1
20260506160524 64 68 6.0 13.0 0.00 0.00 0.00 65 1014.4
20260506155520 60 25 5.0 10.0 0.00 0.00 0.00 73 1014.6
20260506154515 59 63 1.0 4.0 0.00 0.00 0.00 75 1014.7
20260506153546 58 33 3.0 7.0 0.00 0.00 0.00 74 1014.3
20260506152601 58 321 3.0 9.0 0.00 0.00 0.00 75 1014.8
20260506151516 58 291 3.0 10.0 0.00 0.00 0.00 77 1014.8
20260506150526 57 286 3.0 10.0 0.00 0.00 0.00 75 1015.1
20260506145521 58 269 5.0 10.0 0.00 0.00 0.00 72 1016.3
20260506144516 58 250 3.0 7.0 0.00 0.00 0.00 71 1015.9
20260506143526 58 260 3.0 7.0 0.00 0.00 0.00 71 1015.3
20260506142521 58 134 3.0 11.0 0.00 0.00 0.00 70 1014.4
20260506141517 59 357 4.0 13.0 0.00 0.00 0.00 68 1014.2
20260506140527 60 0 4.0 11.0 0.00 0.00 0.00 66 1014.2
20260506135522 60 263 6.0 11.0 0.00 0.00 0.00 66 1014.2
20260506134537 60 275 4.0 14.0 0.00 0.00 0.00 64 1014.0
20260506133528 60 257 4.0 9.0 0.00 0.00 0.00 64 1013.8
20260506132603 60 275 3.0 9.0 0.00 0.00 0.00 64 1013.7
20260506131518 60 221 3.0 9.0 0.00 0.00 0.00 65 1013.1
20260506130528 60 244 5.0 11.0 0.00 0.00 0.00 65 1013.1
20260506125523 60 45 3.0 8.0 0.00 0.00 0.00 65 1013.0
20260506124519 60 242 4.0 9.0 0.00 0.00 0.00 66 1013.1
20260506123529 60 245 4.0 10.0 0.00 0.00 0.00 67 1012.8
20260506122523 60 250 4.0 11.0 0.00 0.00 0.00 67 1012.7
20260506121519 60 247 5.0 11.0 0.00 0.00 0.00 67 1012.6
20260506120529 60 325 3.0 8.0 0.00 0.00 0.00 68 1012.4
20260506115524 60 238 2.0 7.0 0.00 0.00 0.00 68 1012.5
20260506114519 60 9 4.0 10.0 0.00 0.00 0.00 68 1012.3
20260506113529 60 227 3.0 7.0 0.00 0.00 0.00 68 1012.1
20260506112525 61 245 5.0 13.0 0.00 0.00 0.00 68 1011.9
20260506111519 61 259 3.0 8.0 0.00 0.00 0.00 68 1011.6
20260506110530 61 259 5.0 9.0 0.00 0.00 0.00 68 1011.7
20260506105525 61 22 3.0 8.0 0.00 0.00 0.00 69 1011.3
20260506104521 61 11 4.0 8.0 0.00 0.00 0.00 69 1011.3
20260506103516 62 331 3.0 7.0 0.00 0.00 0.00 68 1011.1
20260506102526 61 222 3.0 7.0 0.00 0.00 0.00 68 1010.9
20260506101521 62 275 2.0 4.0 0.00 0.00 0.00 68 1010.7
20260506100516 62 7 3.0 10.0 0.00 0.00 0.00 67 1010.6
20260506095527 62 37 4.0 9.0 0.00 0.00 0.00 67 1010.5
20260506094542 62 32 3.0 11.0 0.00 0.00 0.00 67 1010.2
20260506093537 62 23 5.0 9.0 0.00 0.00 0.00 68 1010.3
20260506092548 63 35 4.0 8.0 0.00 0.00 0.00 68 1010.3
20260506091522 63 359 4.0 9.0 0.00 0.00 0.00 68 1010.3
20260506090558 63 40 3.0 8.0 0.00 0.00 0.00 67 1010.2
20260506085528 64 49 3.0 7.0 0.00 0.00 0.00 67 1010.0
20260506084543 64 13 3.0 8.0 0.00 0.00 0.00 67 1009.9
20260506083537 64 10 5.0 10.0 0.00 0.00 0.00 67 1009.8
20260506082527 64 15 4.0 8.0 0.00 0.00 0.00 67 1009.9
20260506081521 65 60 2.0 6.0 0.00 0.00 0.00 66 1009.7
20260506080517 65 56 4.0 8.0 0.00 0.00 0.00 66 1009.4
20260506073517 66 26 3.0 7.0 0.00 0.00 0.00 66 1009.7
20260506072527 66 53 4.0 8.0 0.00 0.00 0.00 67 1009.8
20260506071522 66 72 5.0 8.0 0.00 0.00 0.00 67 1009.7
20260506070518 66 50 3.0 10.0 0.00 0.00 0.00 67 1009.8
20260506061543 68 43 3.0 8.0 0.00 0.00 0.00 66 1009.4
20260506060529 68 23 3.0 7.0 0.00 0.00 0.00 66 1009.4